Beidou DW 33

operational
NORAD ID: 43581 Int'l Des: 2018-062 Owner: CNSA Country: CN Constellation: BeiDou
MEOCIRCULAR

Über Beidou DW 33

Beschreibung wird geladen...

Live-Position

3D-Globus wird geladen...

Nächste Überflüge

Höhenverlauf

Altitude vs Time

uPlot chart will show altitude changes over time

Zweizeiliger Elementsatz

1 43581U 18062A 25301.14226363 .00000018 00000-0 00000-0 0 9995
2 43581 54.0903 190.1953 0002771 324.9020 35.1608 1.86228781 49312
Epoch: 28. Okt. 2025 • Age: 71 hours

Aktueller Status

Höhe 21535.4 km
Geschwindigkeit 3.78 km/s
Subsatellitenpunkt -7.87°S, 63.43°W
Startdatum 29. Juli 2018
Alter 7.2 years
Typ navigation

Technische Details

Klassifizierung Payload
Masse 1014.00 kg
Trockenmasse 850.00 kg
Gesamtmasse 1014.00 kg
Länge 2.20 m
Durchmesser 1.70 m
Spannweite 10.00 m
Form Box + 2 Pan
Hersteller CAST
Bus-Typ BD-3M
Phasenstatus In Orbit
Besitzer/Staat CNSA/CN

Große Konstellationen

Loading constellations...